Temp
-2 -2 -2 -2 -2 -2 -2 -3 -2 -0 0 -1 -0 -0 2 3 4 5 5 6 6 8 8 8 9 10 9 9 8 8 7 7 6 8 11 10 9 8 9 9 9 11 10 11
-2 -2 -2 -2 -2 -3 -3 -3 -2 -0 0 -1 -1 0 2 3 3 4 5 5 7 7 7 8 9 8 8 8 7 6 6 7 7 8 10 10 9 9 9 9 9 10 10 12
-3 -2 -2 -2 -2 -3 -3 -3 -3 -1 -0 0 -0 -0 1 2 4 4 4 5 6 6 7 8 8 8 8 8 7 7 7 6 6 6 8 7 7 7 6 8 8 10 10 12
-3 -3 -2 -2 -2 -3 -3 -3 -4 -1 -1 -1 0 0 0 1 2 5 5 6 6 6 6 7 7 9 6 7 6 6 5 5 6 7 8 8 9 8 9 8 8 9 12 12
-3 -3 -3 -3 -2 -3 -3 -3 -3 -0 -1 -1 -1 1 1 1 3 2 4 5 6 5 6 6 6 7 7 7 5 6 5 4 6 6 8 9 8 8 9 10 8 8 10 11
-3 -3 -3 -3 -2 -3 -3 -3 -3 -2 -1 0 -1 -0 -0 2 1 2 3 3 3 4 5 5 6 6 7 7 5 5 4 4 4 4 7 7 7 8 9 10 10 10 9 12
-2 -2 -2 -2 -2 -3 -3 -3 -2 -2 -2 0 1 2 3 1 1 1 3 3 4 5 6 7 7 7 7 6 6 5 4 4 4 4 5 7 9 9 9 9 8 11 11 11
-2 -2 -2 -2 -2 -2 -3 -3 -3 -2 -3 -0 1 2 2 3 3 3 4 5 5 5 5 4 4 4 5 5 6 5 5 4 3 4 5 7 9 7 8 6 6 9 9 9
-2 -2 -2 -2 -2 -2 -3 -3 -3 -3 -2 -1 0 0 1 -0 0 1 4 4 5 5 1 2 3 3 5 6 6 7 6 5 4 4 5 6 7 9 9 8 7 7 8 8
-2 -2 -2 -2 -2 -2 -2 -3 -3 -3 -3 -1 -1 -1 -0 1 0 1 1 0 3 3 0 0 1 3 6 5 6 6 3 3 5 5 5 7 9 9 8 7 7 7 6 6
-2 -2 -1 -1 -1 -2 -2 -3 -2 -2 -3 -2 -1 -0 -0 -0 0 -0 0 1 2 2 0 1 2 1 4 4 6 6 5 4 4 4 5 6 9 8 7 6 5 5 5 5
-2 -1 -1 -1 -1 -2 -2 -3 -2 -2 -3 -2 -1 -1 0 1 0 0 -0 -0 0 0 2 1 2 2 2 5 5 5 5 6 4 6 6 7 6 5 5 5 4 4 4 4
-1 -1 -1 -1 -1 -1 -2 -2 -3 -3 -3 -2 -2 0 2 1 1 1 1 0 0 0 1 2 3 3 3 4 4 5 3 5 7 7 3 4 4 4 3 5 3 2 3 2
-1 -1 -1 -1 -1 -1 -2 -2 -2 -2 -2 -3 -1 1 1 2 2 2 1 1 1 0 1 1 2 2 2 3 2 2 1 2 4 3 1 1 0 0 1 1 2 2 1 0
-0 -1 -1 -1 -1 -1 -1 -1 -2 -2 -1 -3 -1 1 3 3 2 2 2 2 2 1 1 2 3 3 3 2 2 0 -1 0 3 3 0 0 -0 -1 0 0 -2 -1 -1 -1
-0 -1 -1 -1 -1 -1 -1 -1 -2 -2 -2 -1 -3 1 3 3 3 3 3 2 2 2 2 2 2 3 2 3 1 -2 -2 -1 -0 -1 -1 -1 -1 -1 -0 -1 -3 -3 -4 -5
0 -0 -0 -1 -1 -1 -1 -1 -0 -1 -2 -2 -2 -1 2 2 3 3 2 2 2 2 2 2 2 4 2 -0 -1 -3 -3 -3 -2 -1 -1 -2 -2 -3 -3 -4 -4 -4 -5 -6
0 -0 -0 -0 -1 -1 -1 -1 -0 -2 -2 -2 -2 -2 0 2 2 2 3 2 2 2 2 2 2 -0 -1 -2 -4 -5 -4 -4 -3 -3 -2 -3 -3 -3 -4 -5 -5 -5 -7 -7
0 -1 -0 -1 -1 -1 -1 -0 -1 -2 -1 -2 -1 -0 -0 1 1 1 1 1 1 1 1 1 1 -2 -3 -4 -5 -6 -6 -5 -5 -4 -4 -5 -5 -5 -6 -6 -7 -7 -9 -9
-1 -0 -1 -1 -1 -1 -1 -1 -1 -1 -1 -1 -0 1 0 1 1 0 0 1 1 2 1 -0 -2 -4 -6 -6 -7 -7 -7 -7 -6 -6 -6 -6 -7 -7 -7 -8 -8 -8 -9 -9
-0 -1 -1 -1 -1 -0 -1 -2 -1 -2 -1 -2 0 -0 1 1 1 0 1 1 1 2 1 1 -1 -3 -6 -7 -8 -8 -8 -8 -8 -8 -8 -8 -8 -10 -10 -11 -11 -10 -10 -10
-1 -0 -1 -1 -1 -1 -0 -1 -1 -1 -0 -0 0 0 1 1 1 0 1 1 1 2 1 -1 -5 -5 -8 -8 -8 -9 -9 -9 -9 -9 -10 -10 -10 -11 -12 -12 -11 -11 -11 -11
-1 -0 -1 -1 -1 -0 -2 0 -0 0 0 1 1 1 1 -0 0 1 1 0 1 -0 -4 -5 -6 -7 -8 -9 -9 -10 -10 -10 -11 -11 -11 -10 -11 -11 -11 -11 -11 -11 -11 -11
-0 -1 -4 -4 -1 -2 -5 -3 -1 -1 -0 1 1 0 0 0 -0 -0 0 -1 -1 -1 -5 -5 -8 -9 -9 -9 -10 -10 -11 -11 -11 -11 -11 -11 -11 -11 -12 -11 -12 -11 -11 -12
-2 -2 -5 -7 -4 -3 -3 -2 -2 -2 0 1 1 0 1 -2 -1 -1 -0 -1 -2 -4 -5 -9 -9 -9 -9 -10 -10 -11 -11 -11 -11 -11 -11 -11 -11 -11 -12 -12 -12 -12 -12 -12
-3 -4 -4 -4 -4 -5 -3 -2 -2 -2 0 1 2 -0 -0 -1 -1 -3 -4 -2 -5 -9 -12 -9 -9 -9 -10 -10 -11 -11 -11 -11 -11 -11 -11 -11 -11 -11 -11 -12 -12 -12 -13 -13
-4 -6 -5 -5 -5 -5 -4 -4 -3 -2 -1 -0 -1 0 -0 -2 -6 -7 -8 -10 -11 -10 -9 -9 -9 -10 -10 -10 -11 -11 -11 -11 -11 -11 -11 -11 -12 -12 -12 -12 -12 -13 -13 -14
Height
1475 1475 1474 1474 1474 1473 1472 1473 1472 1466 1465 1469 1465 1462 1457 1456 1454 1453 1452 1444 1438 1429 1426 1424 1422 1418 1420 1423 1425 1429 1434 1437 1440 1428 1415 1418 1422 1425 1422 1423 1422 1415 1417 1404
1470 1470 1470 1470 1470 1471 1471 1470 1466 1464 1465 1459 1460 1457 1455 1457 1455 1454 1448 1443 1437 1432 1431 1428 1422 1423 1426 1426 1429 1434 1436 1437 1435 1423 1415 1420 1422 1420 1421 1420 1419 1414 1415 1403
1466 1466 1466 1466 1466 1468 1469 1469 1464 1459 1457 1455 1457 1457 1454 1453 1448 1446 1446 1443 1440 1434 1428 1424 1425 1426 1429 1430 1431 1431 1433 1437 1437 1436 1427 1430 1428 1426 1427 1419 1416 1407 1403 1396
1460 1461 1461 1462 1463 1465 1466 1466 1462 1457 1454 1452 1452 1455 1453 1447 1444 1441 1439 1434 1434 1432 1431 1426 1429 1424 1430 1431 1432 1432 1435 1441 1436 1431 1425 1422 1417 1417 1414 1417 1414 1405 1393 1393
1455 1456 1456 1458 1459 1461 1462 1461 1460 1456 1452 1448 1449 1441 1444 1442 1440 1443 1432 1432 1429 1431 1430 1431 1432 1428 1428 1427 1434 1434 1437 1440 1434 1431 1418 1412 1411 1408 1403 1399 1404 1403 1398 1395
1449 1450 1451 1452 1455 1456 1456 1456 1457 1457 1451 1449 1449 1447 1445 1437 1437 1434 1434 1434 1434 1431 1429 1430 1429 1429 1428 1428 1430 1435 1439 1439 1440 1437 1418 1415 1411 1398 1390 1388 1389 1387 1389 1391
1443 1443 1444 1446 1449 1450 1452 1453 1454 1454 1452 1448 1446 1441 1438 1437 1436 1433 1431 1432 1430 1430 1428 1428 1426 1425 1425 1426 1426 1428 1434 1436 1438 1436 1424 1414 1395 1393 1387 1383 1380 1376 1381 1387
1436 1437 1438 1440 1442 1445 1446 1449 1453 1452 1451 1448 1445 1441 1439 1435 1432 1429 1428 1427 1426 1426 1428 1429 1429 1429 1425 1421 1419 1422 1424 1429 1436 1436 1428 1408 1390 1395 1387 1394 1391 1379 1382 1389
1430 1431 1432 1433 1433 1438 1441 1444 1449 1451 1452 1446 1445 1444 1442 1440 1435 1429 1429 1428 1428 1428 1430 1433 1433 1433 1423 1419 1414 1411 1418 1422 1430 1434 1426 1416 1396 1393 1390 1388 1387 1390 1386 1393
1423 1425 1426 1428 1428 1431 1436 1439 1444 1448 1447 1445 1445 1444 1443 1442 1442 1440 1436 1435 1431 1430 1435 1441 1439 1433 1421 1423 1417 1415 1425 1426 1424 1427 1422 1405 1389 1389 1392 1389 1398 1398 1397 1397
1417 1419 1421 1423 1425 1426 1431 1434 1439 1442 1442 1441 1441 1442 1443 1442 1442 1445 1442 1437 1434 1433 1437 1437 1431 1436 1423 1418 1410 1409 1413 1420 1420 1424 1420 1410 1392 1393 1395 1400 1401 1402 1405 1407
1409 1412 1415 1418 1421 1423 1427 1431 1434 1439 1441 1439 1437 1437 1436 1438 1440 1443 1443 1443 1439 1434 1433 1433 1431 1429 1423 1413 1410 1406 1405 1403 1411 1409 1408 1404 1397 1397 1400 1403 1406 1410 1411 1413
1402 1405 1408 1412 1416 1420 1422 1426 1431 1437 1440 1438 1435 1429 1433 1436 1435 1439 1441 1440 1438 1435 1435 1433 1429 1425 1421 1415 1407 1399 1400 1400 1399 1398 1415 1411 1410 1409 1407 1407 1410 1414 1415 1418
1396 1398 1401 1405 1410 1415 1419 1421 1427 1434 1437 1437 1429 1427 1427 1428 1429 1430 1433 1436 1436 1435 1434 1433 1430 1426 1420 1414 1418 1417 1418 1409 1406 1413 1418 1417 1416 1416 1416 1414 1416 1417 1418 1420
1392 1394 1396 1400 1406 1412 1417 1420 1423 1429 1436 1433 1428 1425 1420 1422 1424 1426 1428 1432 1434 1435 1433 1432 1427 1422 1418 1416 1420 1427 1426 1420 1410 1413 1419 1419 1423 1420 1422 1416 1425 1420 1421 1422
1387 1390 1393 1396 1402 1409 1414 1416 1420 1424 1431 1434 1432 1423 1419 1419 1419 1422 1425 1428 1432 1433 1432 1430 1425 1420 1421 1415 1425 1435 1430 1421 1416 1421 1421 1423 1425 1422 1423 1426 1428 1427 1426 1425
1383 1387 1390 1394 1399 1404 1408 1412 1411 1417 1428 1433 1430 1422 1416 1414 1416 1420 1424 1427 1428 1430 1430 1427 1423 1419 1420 1425 1434 1439 1433 1428 1427 1426 1426 1429 1430 1433 1432 1431 1431 1430 1429 1427
1378 1383 1388 1392 1397 1404 1406 1409 1409 1415 1425 1430 1429 1422 1417 1414 1415 1420 1422 1424 1427 1428 1427 1424 1421 1421 1428 1437 1445 1445 1441 1438 1434 1433 1432 1433 1434 1434 1435 1433 1433 1433 1432 1431
1375 1382 1387 1388 1395 1400 1405 1408 1412 1417 1424 1423 1423 1419 1418 1415 1416 1418 1422 1423 1423 1424 1423 1423 1423 1433 1440 1444 1445 1446 1446 1445 1443 1439 1437 1437 1436 1437 1436 1434 1434 1436 1436 1434
1371 1378 1383 1387 1392 1397 1405 1413 1416 1419 1419 1418 1417 1416 1415 1414 1414 1418 1419 1420 1420 1419 1420 1421 1430 1444 1447 1448 1448 1447 1446 1446 1444 1444 1444 1443 1440 1438 1437 1437 1437 1438 1438 1438
1367 1373 1379 1385 1392 1398 1404 1408 1411 1415 1414 1411 1409 1411 1411 1414 1412 1415 1416 1416 1416 1415 1416 1418 1429 1439 1448 1449 1448 1447 1445 1444 1443 1442 1440 1439 1439 1440 1441 1441 1440 1440 1440 1441
1363 1368 1380 1388 1394 1398 1400 1403 1406 1407 1405 1403 1403 1406 1407 1410 1411 1412 1415 1415 1416 1413 1416 1423 1441 1445 1447 1446 1446 1445 1444 1443 1441 1441 1440 1441 1442 1443 1443 1443 1443 1443 1443 1443
1368 1375 1381 1385 1390 1392 1397 1396 1400 1398 1397 1399 1400 1404 1406 1407 1409 1412 1413 1416 1415 1418 1430 1440 1445 1447 1448 1448 1448 1448 1447 1446 1445 1445 1445 1445 1445 1446 1446 1446 1447 1447 1447 1447
1370 1375 1385 1388 1389 1392 1395 1393 1392 1395 1396 1397 1400 1403 1405 1406 1409 1411 1415 1419 1418 1424 1437 1441 1446 1448 1449 1450 1450 1450 1450 1450 1450 1450 1450 1450 1450 1450 1451 1451 1451 1451 1450 1451
1371 1376 1389 1393 1392 1392 1393 1393 1394 1396 1396 1398 1401 1404 1406 1409 1412 1413 1417 1420 1427 1433 1435 1443 1445 1448 1450 1451 1452 1452 1453 1453 1454 1454 1454 1454 1455 1455 1454 1455 1455 1455 1454 1454
1378 1385 1389 1392 1393 1394 1394 1395 1396 1397 1399 1400 1402 1406 1410 1413 1413 1421 1428 1424 1432 1441 1441 1443 1446 1449 1451 1453 1454 1455 1456 1456 1457 1457 1457 1458 1458 1458 1458 1457 1457 1457 1456 1455
1388 1393 1394 1394 1396 1398 1398 1399 1399 1399 1400 1402 1404 1408 1412 1414 1426 1434 1434 1440 1439 1439 1442 1446 1448 1450 1453 1455 1456 1457 1458 1459 1459 1459 1460 1460 1460 1460 1460 1460 1459 1459 1458 1457
Wind_Speed
17 16 16 14 13 12 13 7 2 5 4 8 5 10 7 7 15 20 13 7 13 5 8 4 4 3 1 5 3 5 3 3 4 9 7 10 5 2 6 3 4 4 1 5
16 15 15 15 13 11 9 5 9 16 16 3 7 4 10 14 18 17 5 6 5 11 6 4 2 5 5 6 3 3 4 1 3 6 2 7 3 8 9 4 0 5 4 2
17 16 14 13 12 9 11 4 3 4 10 21 5 6 11 13 18 16 21 16 16 15 7 3 4 3 4 5 3 6 4 1 4 3 4 2 4 5 5 8 4 7 7 4
20 16 14 13 11 9 11 8 4 6 3 4 8 7 6 13 12 16 22 7 15 14 4 5 5 1 3 3 9 3 3 2 2 7 12 14 15 16 14 10 12 7 7 5
18 17 15 14 11 11 15 7 2 3 4 11 1 9 9 14 7 4 6 3 6 1 2 2 3 2 1 3 2 3 1 3 2 5 7 7 14 16 17 17 19 14 20 7
19 18 18 16 12 15 11 10 18 4 5 4 6 3 9 5 5 10 16 6 6 3 1 2 6 7 6 2 6 7 4 1 1 4 7 12 11 10 14 13 15 18 17 13
19 18 19 17 16 19 20 12 4 4 2 3 5 14 14 13 9 5 6 19 6 2 4 6 5 7 10 7 7 9 6 4 3 4 6 4 2 11 4 6 9 13 5 10
21 20 20 19 19 19 22 20 14 3 2 4 8 9 8 14 13 3 3 5 4 2 1 2 3 3 3 5 10 10 8 4 1 2 2 10 4 5 4 3 6 6 14 19
19 17 16 19 16 23 23 23 18 10 3 5 5 4 8 3 7 8 7 6 3 2 2 2 2 3 2 3 4 10 8 5 4 2 3 4 1 10 7 2 3 9 12 11
17 17 16 17 16 20 25 20 20 16 7 16 14 3 3 3 4 4 5 13 4 1 2 1 2 3 3 3 4 2 3 3 11 6 4 7 8 3 7 0 5 15 19 20
19 18 17 16 12 17 25 24 20 21 7 14 14 10 9 8 2 2 9 9 3 1 1 2 3 3 4 3 4 4 6 6 5 3 5 8 5 6 1 8 17 20 18 17
21 21 19 18 15 14 25 23 23 20 14 9 9 11 17 23 22 12 2 6 5 2 2 0 2 2 3 1 4 3 5 7 5 6 3 11 20 20 22 21 19 18 18 15
20 21 21 22 19 17 25 28 20 20 18 20 25 28 27 24 18 13 5 3 3 6 9 3 2 4 1 3 0 4 3 9 2 5 7 14 21 21 25 24 24 21 20 18
15 17 19 23 22 20 18 30 24 23 6 4 10 8 11 9 10 22 27 26 15 9 8 4 2 3 4 1 1 5 4 8 5 5 4 6 21 21 19 25 18 18 16 15
13 14 16 20 22 20 20 25 28 26 15 3 7 16 12 16 11 11 15 22 20 9 3 2 2 4 3 2 2 4 10 5 1 3 8 11 11 17 14 21 15 16 13 14
15 14 16 19 22 23 22 12 31 29 27 4 3 5 10 14 13 19 14 19 16 7 2 4 6 3 2 1 3 10 19 23 19 6 20 18 17 20 13 11 12 12 13 12
19 16 16 18 22 27 28 6 6 35 28 4 4 4 5 6 12 9 11 17 7 4 3 4 4 2 3 3 3 12 18 23 21 14 6 15 14 11 12 12 11 11 13 12
23 17 18 18 22 25 23 6 6 34 23 5 2 4 4 3 5 4 7 8 6 5 3 4 2 4 4 3 8 13 11 9 17 18 19 15 12 11 12 10 8 10 14 14
23 19 20 32 24 12 15 11 20 30 7 8 4 2 2 4 4 5 4 6 2 4 2 2 3 3 4 5 10 12 12 9 6 8 10 10 11 10 9 8 9 10 11 11
29 28 12 6 16 25 28 15 6 8 4 5 3 6 2 4 3 2 4 4 2 3 3 5 3 3 11 11 9 7 8 9 6 8 9 7 7 7 7 8 6 5 8 9
29 7 5 32 33 20 6 6 5 6 3 6 7 12 2 2 2 3 4 2 2 2 2 2 2 2 4 7 9 7 7 7 8 9 9 9 8 8 8 7 6 7 9 10
13 22 32 25 7 4 3 3 4 4 5 5 5 6 5 3 2 2 4 2 1 1 2 3 2 3 8 6 8 7 7 7 7 7 9 8 8 8 10 11 12 12 12 11
38 13 5 5 2 3 4 6 3 3 4 6 6 3 5 4 3 3 2 2 1 1 4 2 2 10 8 5 5 5 5 6 8 9 10 11 12 12 12 14 13 13 13 12
5 4 4 2 3 2 2 1 2 2 3 13 12 5 3 3 2 1 3 1 2 2 2 2 2 10 9 6 6 8 10 10 12 13 13 14 14 14 13 12 11 10 12 12
6 5 4 2 1 2 3 6 6 4 8 9 9 5 4 2 3 2 2 1 2 0 3 2 13 12 9 9 8 9 10 10 11 11 12 13 12 13 14 11 9 8 7 5
6 7 4 3 5 5 8 8 4 4 8 8 6 3 3 2 2 4 1 2 4 3 2 18 16 14 11 11 9 9 10 10 13 13 13 12 11 9 9 7 6 5 5 4
5 4 11 10 9 6 6 4 3 2 3 2 3 3 1 2 3 2 3 2 3 14 19 16 13 14 13 12 11 10 10 11 12 12 11 11 11 11 9 7 7 6 6 8
Wind_Direction
293 293 293 291 292 298 288 290 253 323 217 184 208 231 237 279 283 297 285 277 274 316 337 351 335 24 36 169 111 136 66 166 240 238 232 192 167 253 236 192 189 245 108 276
290 292 293 289 281 281 276 269 262 269 262 264 226 265 251 256 272 270 290 314 304 326 316 323 10 71 50 86 77 139 176 179 304 307 91 179 227 220 231 255 272 221 191 234
288 289 290 289 282 268 246 259 284 256 214 235 252 238 256 255 263 260 248 254 277 293 326 340 314 101 175 139 124 124 90 209 205 248 310 299 281 297 310 248 226 227 222 287
283 284 281 279 279 254 238 218 251 254 300 248 223 215 260 261 248 253 269 258 239 257 287 334 299 356 132 151 143 78 100 244 243 260 264 270 266 258 259 259 252 233 232 226
278 276 273 274 267 249 224 233 218 284 278 290 317 267 200 232 239 245 290 286 298 89 79 9 329 13 175 182 214 130 138 272 302 282 279 288 265 271 255 244 252 246 243 235
275 275 272 268 255 241 239 245 238 281 292 307 319 291 5 333 321 235 245 280 303 336 125 293 284 296 287 222 152 176 168 195 357 265 295 300 274 276 260 237 243 227 218 227
273 271 268 262 250 239 242 238 248 204 277 269 285 307 327 338 324 297 284 193 204 191 338 298 274 272 266 254 231 170 174 180 165 269 311 261 218 324 244 334 8 202 170 130
277 271 264 258 250 234 235 237 229 269 269 258 292 327 333 324 315 279 259 18 89 147 16 35 350 326 319 248 216 209 203 157 194 231 226 275 303 338 295 123 349 0 109 125
270 268 260 262 257 226 229 235 233 235 320 234 12 329 13 349 335 351 32 34 28 359 76 87 182 240 237 286 295 215 193 168 161 171 269 257 230 308 317 264 81 45 121 114
261 259 261 261 270 226 217 227 222 220 240 264 288 262 301 320 359 328 332 347 341 46 95 109 163 246 257 254 234 185 159 166 213 218 262 280 265 119 287 261 97 86 81 83
259 256 254 249 252 216 209 221 221 213 242 267 265 278 281 302 311 11 328 332 34 323 40 168 232 197 245 257 232 197 183 187 193 202 234 255 144 88 15 101 86 96 89 101
258 251 245 238 226 219 212 216 220 218 234 267 295 276 255 261 270 265 241 283 279 287 238 239 310 303 305 316 276 199 221 180 173 178 212 50 57 96 104 112 98 79 97 90
246 245 238 230 221 211 214 217 214 209 235 275 268 260 267 265 252 245 227 281 300 327 345 347 287 264 270 260 160 280 223 17 299 112 22 71 67 77 94 101 87 88 95 88
249 244 235 218 213 211 217 213 211 203 177 226 284 300 271 268 249 239 243 246 286 268 326 231 266 258 206 336 37 22 324 312 93 103 196 27 56 63 75 81 89 90 85 84
245 235 227 211 206 205 211 220 211 201 191 225 280 301 279 240 233 243 232 232 250 281 285 292 256 251 305 77 78 25 352 322 302 78 78 79 50 72 77 77 69 80 83 78
238 228 220 206 200 194 193 195 218 209 205 309 316 300 273 265 277 216 234 228 234 222 240 271 273 231 61 342 88 4 359 24 63 84 84 87 71 63 63 78 71 76 82 79
224 217 208 199 193 193 186 186 219 202 192 201 281 284 285 318 167 188 187 187 201 202 231 245 259 293 71 35 62 5 1 29 44 46 121 62 67 67 93 86 73 57 64 67
205 206 189 192 186 191 196 181 164 176 173 181 253 268 301 186 127 110 170 173 190 213 240 251 269 40 59 75 56 47 23 26 38 51 78 95 104 94 87 79 68 57 61 65
186 185 175 163 174 158 154 149 162 168 167 178 198 257 290 209 116 122 143 179 185 210 215 236 65 20 47 66 62 49 41 41 42 52 67 83 86 80 70 66 64 73 77 73
171 171 154 130 147 147 125 131 145 164 217 222 218 198 244 205 123 146 158 171 194 198 213 108 74 77 86 77 66 43 36 47 80 103 77 96 83 68 64 75 89 89 103 115
157 132 101 135 142 124 133 147 167 165 210 216 210 194 170 181 166 150 199 188 163 232 195 110 109 106 101 91 70 55 39 40 61 75 84 97 103 97 94 101 102 109 125 125
136 133 135 130 140 152 150 160 160 189 214 188 172 168 149 192 129 106 167 165 137 266 90 75 70 100 113 83 62 44 31 28 45 53 70 80 91 95 102 103 105 106 108 111
123 114 116 141 142 136 151 156 169 191 182 170 146 131 135 152 147 104 101 98 75 94 45 86 69 113 118 96 65 66 57 64 77 90 89 91 99 101 100 104 105 109 107 101
104 121 77 112 138 107 174 153 104 109 146 153 136 119 134 111 75 91 84 295 59 56 79 154 120 144 135 122 104 105 94 94 94 96 99 101 103 103 102 101 105 111 110 107
78 53 71 68 113 77 98 97 113 79 138 137 109 71 73 50 90 36 110 95 86 75 175 148 148 140 128 121 117 108 105 105 103 104 103 100 102 104 103 100 98 92 93 98
57 46 69 56 72 29 62 76 76 69 135 103 79 89 75 40 75 60 58 118 208 208 169 138 144 139 134 129 122 111 109 108 103 99 97 94 90 84 84 87 74 58 48 42
50 35 58 81 80 64 62 60 14 41 83 85 69 91 114 69 62 51 24 162 189 130 140 145 147 140 132 126 120 115 113 108 108 100 93 84 75 65 60 54 63 64 59 42